World > North America > United States > Mississippi

Hourly Laneheart, MS Regional Weather

Feedback E-mail the Weather

Quick WX

Laneheart, MS Weather Maps

°F °C°F °C
Laneheart Weather Map
UTC Time: 7/2/2022, 17:47
Your Time:

Laneheart, MS Regional Weather

Expires:202207021800;;560562
ASUS44 KJAN 021710
RWRMS 

MISSISSIPPI HOURLY WEATHER ROUNDUP
NATIONAL WEATHER SERVICE JACKSON MS
1200 PM CDT SAT JUL 02 2022

NOTE: "FAIR: INDICATES FEW OR NO CLOUDS BELOW 12,000 FEET WITH NO
SIGNIFICANT WEATHER AND/OR OBSTRUCTIONS TO VISIBILITY.


MSZ059>079-021800-
SOUTH MISSISSIPPI
  
CITY           SKY/WX    TMP DP  RH WIND       PRES   REMARKS
BROOKHAVEN     PTSUNNY   84  84 100 CALM      30.05F HX 104           
HATTIESBURG    MOSUNNY   89  74  60 W6        30.03F HX  98           
LAUREL         PTSUNNY   87  75  67 NW5       30.05F HX  95           
MCCOMB         CLOUDY    86  74  67 S5        30.04F HX  94           
NATCHEZ        PTSUNNY   85  76  74 SE5       30.03  HX  94           
PINE BELT      MOSUNNY   89  75  63 VRB3      30.05F HX  99           
$$


SKY/WX - Weather  TMP - Temperature  DP - Dew Point  RH - Humidity
WIND - Wind Direction/Speed PRES - Barometric Pressure VSB - Visibility
WCI - Wind Chill Index E13G22 Wind - East Wind 13 mph/Gusts of 22 mph

Trending Headlines

Laneheart Radar Loop



Laneheart Quick Facts


National Two Day Weather Forecast


E-mail the Laneheart Weather Forecast

Voice your opinion or tell us about page issues...